Regional Weather Roundup
Issued by NWS

Home | Current Version | Previous Version | Text Only | Print | Product List | Glossary On
Versions: 1 2 3 4 5 6 7 8 9 10 11 12 13 14 15 16 17 18 19 20 21 22 23 24 25 26 27 28 29 30 31 32 33 34 35 36 37 38 39 40 41 42 43 44 45 46 47 48 49 50
000
ASUS45 KTFX 261910
RWRMT
MONTANA REGIONAL WEATHER ROUNDUP
NATIONAL WEATHER SERVICE GREAT FALLS MT
100 PM MDT THU APR 26 2018

NOTE: "FAIR" INDICATES FEW OR NO CLOUDS BELOW 12000 FEET WITH NO
SIGNIFICANT WEATHER AND/OR OBSTRUCTIONS TO VISIBILITY.

MTZ001>007-043-262000-
WEST OF THE DIVIDE

CITY           SKY/WX    TMP DP  RH WIND       PRES   REMARKS
KALISPELL      FAIR      64  34  32 CALM      30.19F
MISSOULA       FAIR      63  36  36 CALM      30.20F
BUTTE          FAIR      62  27  26 SE7       30.24F
MULLAN PASS    FAIR      54  27  35 CALM      30.25F
ANACONDA         N/A     64  27  24 SE3       30.22F
DEER LODGE       N/A     63  28  27 CALM      30.24F
HAMILTON         N/A     63  34  34 MISG      30.20F
PLAINS           N/A     69  39  33 CALM      30.17F
$$

MTZ008-052>055-262000-
SOUTHWEST MONTANA

CITY           SKY/WX    TMP DP  RH WIND       PRES   REMARKS
BOZEMAN        FAIR      61  28  28 CALM      30.25F
DILLON         FAIR      57  29  34 CALM      30.25F
ENNIS          SUNNY     59  23  25 CALM      30.29F
W YELLOWSTONE  FAIR      50  10  20 CALM      30.29F
THREE FORKS      N/A     61  34  36 CALM      30.21F
TWIN BRIDGES     N/A     60  30  32 SE2       30.21F
$$

MTZ009-010-012-014-046-048-049-054-262000-
EAST SLOPES AND CENTRAL MONTANA

CITY           SKY/WX    TMP DP  RH WIND       PRES   REMARKS
CUT BANK       FAIR      68  18  14 NW8       30.15F
GREAT FALLS    FAIR      68  28  22 SW9       30.16F
MALMSTROM AFB  SUNNY     67  23  19 SW8       30.17F
HELENA         FAIR      61  35  37 CALM      30.23F
AUGUSTA        FAIR      64  22  20 CALM      30.17F
CHOTEAU          N/A     68  21  17 VRB6G13   30.17F
RAYNESFORD     FAIR      66  22  18 NW3       30.17F
WHITE SULPHUR    N/A     59  27  29 VRB7      30.23S
$$

MTZ011-013-016-021-045-047-050-051-262000-
NORTH CENTRAL MONTANA

CITY           SKY/WX    TMP DP  RH WIND       PRES   REMARKS
HAVRE          FAIR      68  30  24 SW17      30.13F
LEWISTOWN      FAIR      62  20  19 NW6       30.20F
N BAR RANCH    FAIR      64  16  15 NW15G21   30.22F
CHINOOK          N/A     66  27  22 SW9       30.13F
GEYSER         FAIR      66  22  19 W6G20     30.17F
STANFORD       FAIR      65  21  19 NW13      30.19F
$$

MTZ017>020-022>027-061-062-262000-
NORTHEAST MONTANA

CITY           SKY/WX    TMP DP  RH WIND       PRES   REMARKS
GLASGOW        FAIR      66  26  22 W14       30.14F
GLENDIVE       FAIR      62  29  28 W14G21    30.17F
JORDAN           N/A     63  29  27 W10G21    30.17F
MALTA          SUNNY     64  34  32 SW17      30.12F
SIDNEY         FAIR      64  28  25 W16G22    30.13F
WOLF POINT     FAIR      66  27  23 W18G24    30.14F
PLENTYWOOD       N/A     63  25  23 MISG      30.07F
POPLAR           N/A     63  27  25 MISG      30.13F
SCOBEY           N/A     64  25  23 W17       30.08F
$$

MTZ028>42-056>058-262000-
SOUTHCENTRAL AND SOUTHEAST MONTANA

CITY           SKY/WX    TMP DP  RH WIND       PRES   REMARKS
BAKER          FAIR      60  30  32 W15       30.18F
BILLINGS       FAIR      63  32  31 SW17G23   30.21F
LIVINGSTON     FAIR      64  27  24 SW12G18   30.23F
MILES CITY     FAIR      62  32  32 NW14      30.19F
BIG TIMBER     SUNNY     63  25  23 W14       30.23F
EKALAKA          N/A     58  26  29 W16       30.17F
FORSYTH          N/A     61  28  29 W7        30.20F
LAUREL           N/A     63  32  31 SW13G18   30.22F
ROUNDUP          N/A     63  29  27 SW13      30.09F
$$

REGIONAL REPORTS...DAKOTAS

CITY           SKY/WX    TMP DP  RH WIND       PRES   REMARKS
WILLISTON      FAIR      65  27  23 W15G24    30.10F
MINOT          FAIR      66  23  19 W23G30    30.05F
DICKINSON      FAIR      63  27  25 W17G25    30.12F
BEACH          FAIR      59  23  25 W22       30.18F
CROSBY         FAIR      64  25  22 W21G32    30.06F
TIOGA          FAIR      61  25  25 W16G26    30.09F
WATFORD CITY   FAIR      63  27  25 W16G24    30.11F
BISMARCK       FAIR      64  23  21 NW17G26   30.11F
GRAND FORKS    FAIR      56  32  40 N24G31    30.03F
FARGO          FAIR      57  29  34 N24G31    30.04F
BUFFALO SD       N/A     62  28  27 W15G23    30.12F
RAPID CITY     FAIR      60  30  32 N17G28    30.20F
$$

REGIONAL REPORTS...WYOMING/IDAHO/WASHINGTON

CITY           SKY/WX    TMP DP  RH WIND       PRES   REMARKS
GILLETTE       FAIR      56  29  35 VRB6      30.25F
SHERIDAN       FAIR      62  34  35 NE7       30.24F
BUFFALO WY     FAIR      57  31  37 SW8       30.27F
CODY           FAIR      58  24  27 SE6       30.27F
YELLOWSTONE LA   N/A     43  18  36 E5        30.36F
IDAHO FALLS    FAIR      62  17  17 VRB5      30.25F
SALMON         FAIR      62  32  32 CALM      30.22F
BOISE          FAIR      76  31  19 SE13G23   30.13F
SPOKANE        FAIR      68  35  29 VRB5      30.14F
$$

REGIONAL REPORTS...ALBERTA

CITY           SKY/WX    TMP DP  RH WIND       PRES   REMARKS
CALGARY        PTSUNNY   66  27  22 NE7       30.14F
EDMONTON       MOSUNNY   61  32  33 NW5G20    30.11R
FORT MCMURRAY  SUNNY     59  23  25 NW22G35   30.05R
HIGH LEVEL     MOSUNNY   57  25  28 SE6       30.10F
LETHBRIDGE     PTSUNNY   66  21  18 VRB2      30.13F
LLOYDMINSTER   MOSUNNY   64  30  27 N13G22    30.03S
MEDICINE HAT   MOSUNNY   70  28  21 W10G18    30.09F
MILK RIVER       N/A     70  23  17 N5          N/A
ONEFOUR          N/A     66  27  22 W7          N/A
PEACE RIVER    PTSUNNY   59  28  31 SW5       30.13F
PINCHER CREEK  SUNNY     66  25  20 W14G22    30.14F
$$

REGIONAL REPORTS...SASKATCHEWAN

CITY           SKY/WX    TMP DP  RH WIND       PRES   REMARKS
CORONACH         N/A     64  21  19 W18G25      N/A
CYPRESS HILLS    N/A     63  18  17 NW10        N/A
ESTEVAN        MOSUNNY   66  27  22 W23G31    30.02F
MOOSE JAW        N/A     70  21  16 W22G30      N/A
PRINCE ALBERT  MOSUNNY   63  30  29 NW20G30   29.91F
REGINA         SUNNY     66  25  20 W24G36    29.99F
ROCKGLEN         N/A     63  25  23 W16G25      N/A
SASKATOON      SUNNY     68  28  22 NW21G31   29.96F
SWIFT CURRENT  SUNNY     66  25  20 W21G28    30.04F
VAL MARIE        N/A     64  27  24 W16G25      N/A
$$



USA.gov is the U.S. government's official web portal to all federal, state and local government web resources and services.